ROMMA est une association bénévole à but non lucratif. Votre soutien est indispensable : ADHERER à ROMMA ou FAIRE un DON

Voiron - (38, Isère)

Voironnais (300 m)   Longitude: 05° 35' E   Latitude: 45° 23' N Station partenaire n°109
 

Détail journalier du     <<     >>

Température Precipitation Humidité Pression Vent Dir Rafale Dir. rafale Ensol.
Heure (°C) (mm) (%) (hPa) (km/h) (km/h) (min)
01:00 13.209410231SSE5SSE0
02:00 13.009510231SSE8SSE0
03:00 12.90.29510231SSE5SSE0
04:00 12.709510221SSE5SSE0
05:00 13.109310222NE11NE0
06:00 13.109410223NNE13ESE0
07:00 13.209310222N5ONO0
08:00 13.20.29410221N6SO0
09:00 13.40.89310233ESE15ESE0
10:00 13.519410242N6NNO0
11:00 14.00.29410241N5N0
12:00 16.208410232N16ESE30
13:00 16.3082102211ESE26E30
14:00 17.4077102113ESE31ESE30
15:00 17.9075102016ESE27ESE60
16:00 18.3074101911ESE26SE60
17:00 17.3077101910ESE26ESE0
18:00 16.707810196ENE18E30
19:00 16.008110195ENE15ENE0
20:00 15.708210204E23E0
21:00 15.208310199ESE23ESE0
22:00 14.708410196ENE18ESE0
23:00 14.508410194E15NE0
minuit 14.308510186E19ENE0

Graphique du 22-10-2019

 

Serveur OMMA